Weather in Babushkin

Russia / Republic of Buryatia     51°42′56″N   105°51′51″E
В апреле 2022 года жителям России запретили посещать сайт meteo.paraplan.net по решению Генеральной прокуратуры. Аудитория сайта уменьшилась в 10 раз. Владельцы сайта не видят смысла в поддержке погодного сервера в таких условиях. Сайт будет закрыт в октябре.
temp.,
°C
wind,
m/s
gust,
m/s
humid.,
%
clouds,
%
prec.,
mm/h
press.,
hPa
HPBL,
m
4 october, tue
tue423:00+2se32575 0.0 1036270
02:00+1se325875 0.0 1035251
05:00+1ese2259100 0.0 1035322
08:00+2e2256100 0.0 1035460
11:00+2nne2157100 0.0 1035612
14:00+2n11659 0.0 1034464
17:00+2wnw126321 0.0 1033409
20:00+3sw236142 0.0 1034602
5 october, wed
wed523:00+3wsw246274 0.1 1033663
02:00+3wsw456645 0.1 1033722
05:00+2sw236759 0.1 1032470
08:00+2sse217072 0.1 1032424
11:00+3nw116714 0.0 1032598
14:00+3w12695 0.0 1030328
17:00+4sw12574 0.0 1027186
20:00+4s32555 0.0 1026175
6 october, thu
thu623:00+4sse22555 0.0 1025171
02:00+4se33555 0.0 1023158
05:00+4ese225483 0.0 1022169
08:00+3e2253100 0.0 1022215
11:00+4nw2261100 0.0 1024436
14:00+4wnw346999 0.0 1024791
17:00+5wsw457655 0.1 1023658
20:00+6wsw246179 0.0 1022576
7 october, fri
fri723:00+6n4460100 0.0 1023936
02:00+5n4562100 0.0 1023885
05:00+4n5572100 0.1 1024908
08:00+2nnw5686100 2.2 1026656
11:00+3nw6767100 1.1 10281222
14:00+4wnw6759100 1.4 10291387
17:00+5nw8857100 0.3 10291501
20:00+4nw8859100 0.4 10321247
8 october, sat
sat823:00+3nw6663100 0.1 10341233
02:00+3wnw886538 0.3 10351188
05:00+2wnw887326 0.2 1037960
08:00+2w787217 0.3 1038949
11:00+2w876913 0.1 1038936
14:00+3w55635 0.1 1036793
17:00+4s125344 0.0 1034338
20:00+3se44665 0.0 1032183